Location: Zagreb
(45.8000°N, 16.0000°E)
Time: 20:15:21
(UTC+02:00)

SR - Pass Details

Date: 17 August 2020
Orbit: 583 x 873 km, 66.7° (Epoch: 28 September)

Event Time Altitude Azimuth Distance (km) Brightness Sun altitude
Rises 05:24:52 0° 327° (NNW) 2,832 ? -6.3°
Reaches altitude 10° 05:27:04 10° 329° (NNW) 1,945 ? -5.9°
Maximum altitude 05:31:25 80° 56° (NE) 636 ? -5.2°
Drops below altitude 10° 05:36:03 10° 145° (SE) 2,058 ? -4.5°
Sets 05:38:25 0° 146° (SE) 3,012 ? -4.1°
